Weather History for Goldsboro, NC

Change the Weather History Date:

Saturday, November 3, 2012

  Actual Average Record
Temperature  
Mean Temperature 46 °F -  
Max Temperature 59 °F 67 °F 84 °F (2003)
Min Temperature 35 °F 45 °F 31 °F (2014)
Degree Days  
Heating Degree Days 18    
Moisture  
Dew Point 34 °F    
Average Humidity 67    
Maximum Humidity 89    
Minimum Humidity 35    
Precipitation  
Precipitation 0.00 in - - ()
Sea Level Pressure  
Sea Level Pressure 30.04 in    
Wind  
Wind Speed 3 mph (NW)    
Max Wind Speed 10 mph    
Max Gust Speed -    
Visibility 10 miles    
Events      
Averages and records for this station are not official NWS values.
T = Trace of Precipitation, MM = Missing Value Source: NWS Daily Summary

Daily Weather History Graph

Daily Weather History Graph

Search for Another Location

Airport:

Trip Planner

Search our weather history database for the weather conditions in past years. The results will help you decide how hot, cold, wet, or windy it might be!

Date:

Astronomy

Nov. 03, 2012 Rise Set
Actual Time 7:35 AM EDT 6:14 PM EDT
Civil Twilight 7:09 AM EDT 6:41 PM EDT
Nautical Twilight 6:39 AM EDT 7:11 PM EDT
Astronomical Twilight 6:09 AM EDT 7:40 PM EDT
Moon 9:57 PM EDT (11/3) 11:34 AM EDT (11/3)
Length of Visible Light 11h 31m
Length of Day
10h 38m
Waning Gibbous, 80% of the Moon is Illuminated
Nov 3
Waning Gibbous
Nov 6
Last Quarter
Nov 13
New
Nov 20
First Quarter
Nov 28
Full

Hourly Weather History & Observations

Time (EDT) Temp. Windchill Dew Point Humidity Pressure Visibility Wind Dir Wind Speed Gust Speed Precip Events Conditions
12:55 AM 41.4 °F - 37.4 °F 86% 29.97 in 10.0 mi Calm Calm - N/A   Clear
1:55 AM 40.8 °F - 35.6 °F 82% 29.98 in 10.0 mi Calm Calm - N/A   Clear
2:55 AM 38.7 °F - 34.5 °F 85% 29.98 in 10.0 mi Calm Calm - N/A   Clear
3:55 AM 38.7 °F - 34.3 °F 84% 29.98 in 10.0 mi Calm Calm - N/A   Clear
4:55 AM 35.6 °F - 32.7 °F 89% 29.99 in 10.0 mi Calm Calm - N/A   Clear
5:55 AM 36.5 °F 33.9 °F 30.9 °F 80% 30.00 in 10.0 mi NNW 3.5 mph - N/A   Clear
6:55 AM 35.2 °F 31.2 °F 31.6 °F 87% 30.03 in 10.0 mi SW 4.6 mph - N/A   Clear
7:55 AM 35.4 °F 32.6 °F 32.0 °F 87% 30.06 in 10.0 mi WSW 3.5 mph - N/A   Clear
8:55 AM 40.5 °F - 34.5 °F 79% 30.08 in 10.0 mi Calm Calm - N/A   Clear
9:55 AM 46.9 °F - 32.5 °F 57% 30.09 in 10.0 mi Variable 6.9 mph - N/A   Clear
10:55 AM 49.3 °F - 31.6 °F 51% 30.09 in 10.0 mi NW 10.4 mph - N/A   Clear
11:55 AM 52.7 °F - 31.6 °F 45% 30.08 in 10.0 mi North 8.1 mph - N/A   Clear
12:55 PM 55.0 °F - 31.3 °F 40% 30.06 in 5.0 mi NW 10.4 mph - N/A   Haze
1:55 PM 56.7 °F - 32.2 °F 40% 30.04 in 10.0 mi North 6.9 mph - N/A   Clear
2:55 PM 58.1 °F - 31.6 °F 37% 30.04 in 10.0 mi WNW 10.4 mph - N/A   Clear
3:55 PM 58.8 °F - 30.9 °F 35% 30.03 in 10.0 mi NW 10.4 mph - N/A   Clear
4:55 PM 58.8 °F - 31.5 °F 36% 30.04 in 10.0 mi WNW 9.2 mph - N/A   Clear
5:55 PM 57.0 °F - 31.8 °F 38% 30.03 in 10.0 mi West 5.8 mph - N/A   Clear
6:55 PM 51.1 °F - 35.8 °F 56% 30.04 in 10.0 mi Calm Calm - N/A   Clear
7:55 PM 45.9 °F 44.6 °F 37.2 °F 72% 30.05 in 10.0 mi East 3.5 mph - N/A   Clear
8:55 PM 43.2 °F 40.5 °F 37.6 °F 81% 30.06 in 10.0 mi NE 4.6 mph - N/A   Clear
9:55 PM 42.4 °F 40.7 °F 37.9 °F 84% 30.06 in 10.0 mi ENE 3.5 mph - N/A   Clear
10:55 PM 40.1 °F - 36.5 °F 87% 30.07 in 10.0 mi Calm Calm - N/A   Clear
11:55 PM 40.3 °F - 36.9 °F 88% 30.06 in 10.0 mi Calm Calm - N/A   Clear